Phoenix Deer Valley, AZ

1:31 PM MST on April 29, 2017 (GMT -0700)
Phoenix-Deer Valley Municipal

Weather History for KDVT - December, 2012

Change the Weather History Date:

Saturday, December 15, 2012

  Actual Average Record
Temperature  
Mean Temperature 49 °F -  
Max Temperature 52 °F 62 °F 75 °F (1998)
Min Temperature 44 °F 41 °F 35 °F (2015)
Degree Days  
Heating Degree Days 16    
Moisture  
Dew Point 46 °F    
Average Humidity 91    
Maximum Humidity 96    
Minimum Humidity 86    
Precipitation  
Precipitation 0.53 in - - ()
Sea Level Pressure  
Sea Level Pressure 29.94 in    
Wind  
Wind Speed 7 mph (SSE)    
Max Wind Speed 10 mph    
Max Gust Speed -    
Visibility 8 miles    
Events Rain    
Averages and records for this station are not official NWS values.
T = Trace of Precipitation, MM = Missing Value Source: NWS Daily Summary

Daily Weather History Graph

Daily Weather History Graph

Search for Another Location

Airport or City:

Trip Planner

Search our weather history database for the weather conditions in past years. The results will help you decide how hot, cold, wet, or windy it might be!

Date:

Astronomy

Dec. 15, 2012 Rise Set
Actual Time 7:25 AM MST 5:21 PM MST
Civil Twilight 6:58 AM MST 5:49 PM MST
Nautical Twilight 6:27 AM MST 6:20 PM MST
Astronomical Twilight 5:56 AM MST 6:50 PM MST
Moon 9:26 AM MST (12/15) 8:23 PM MST (12/15)
Length of Visible Light 10h 50m
Length of Day
9h 55m
Waxing Crescent, 9% of the Moon is Illuminated
Dec 15
Waxing Crescent
Dec 19
First Quarter
Dec 28
Full
Jan 4
Last Quarter
Jan 11
New

Hourly Weather History & Observations

Time (MST) Temp. Dew Point Humidity Pressure Visibility Wind Dir Wind Speed Gust Speed Precip Events Conditions
12:53 AM 48.9 °F 46.9 °F 93% 29.95 in 10.0 mi SE 9.2 mph - 0.05 in Rain Light Rain
1:53 AM 48.9 °F 46.0 °F 90% 29.94 in 10.0 mi SE 9.2 mph - 0.00 in   Overcast
2:09 AM 48.2 °F 46.4 °F 93% 29.96 in 10.0 mi SE 9.2 mph - N/A   Overcast
2:53 AM 48.0 °F 46.0 °F 93% 29.93 in 10.0 mi SE 10.4 mph - N/A   Overcast
3:00 AM 48.2 °F 46.4 °F 93% 29.95 in 10.0 mi SE 10.4 mph - N/A   Overcast
3:44 AM 48.2 °F 46.4 °F 93% 29.95 in 10.0 mi SE 4.6 mph - 0.00 in   Overcast
3:53 AM 48.0 °F 46.0 °F 93% 29.93 in 10.0 mi Variable 3.5 mph - 0.00 in   Overcast
4:02 AM 48.2 °F 46.4 °F 93% 29.96 in 10.0 mi ESE 3.5 mph - N/A   Overcast
4:16 AM 48.2 °F 46.4 °F 93% 29.95 in 10.0 mi ESE 6.9 mph - N/A   Overcast
4:53 AM 48.0 °F 46.0 °F 93% 29.92 in 10.0 mi SE 5.8 mph - N/A   Overcast
5:53 AM 48.9 °F 46.0 °F 90% 29.93 in 10.0 mi SE 8.1 mph - N/A   Overcast
6:53 AM 48.0 °F 46.0 °F 93% 29.95 in 10.0 mi SE 5.8 mph - 0.01 in Rain Light Rain
7:53 AM 48.0 °F 46.9 °F 96% 29.96 in 10.0 mi ESE 4.6 mph - 0.01 in Rain Light Rain
8:53 AM 48.9 °F 46.0 °F 90% 29.96 in 10.0 mi SE 9.2 mph - 0.00 in   Overcast
9:53 AM 50.0 °F 46.0 °F 86% 29.97 in 10.0 mi SE 9.2 mph - N/A   Overcast
10:53 AM 50.0 °F 46.9 °F 89% 29.97 in 8.0 mi SSE 9.2 mph - 0.01 in Rain Light Rain
11:53 AM 51.1 °F 46.9 °F 86% 29.95 in 4.0 mi SSE 6.9 mph - 0.04 in Rain Light Rain
12:09 PM 50.0 °F 46.4 °F 87% 29.96 in 2.5 mi South 5.8 mph - 0.04 in Rain Rain
12:27 PM 50.0 °F 48.2 °F 94% 29.96 in 2.5 mi SSW 6.9 mph - 0.10 in Rain Rain
12:37 PM 50.0 °F 48.2 °F 94% 29.96 in 4.0 mi SW 4.6 mph - 0.10 in Rain Light Rain
12:53 PM 50.0 °F 48.0 °F 93% 29.93 in 3.0 mi WSW 6.9 mph - 0.12 in Rain Light Rain
12:59 PM 50.0 °F 48.2 °F 94% 29.95 in 5.0 mi WSW 5.8 mph - 0.00 in Rain Light Rain
1:09 PM 50.0 °F 48.2 °F 94% 29.94 in 5.0 mi South 4.6 mph - 0.01 in Rain Light Rain
1:53 PM 51.1 °F 48.0 °F 89% 29.90 in 10.0 mi South 6.9 mph - 0.01 in   Overcast
2:25 PM 51.8 °F 48.2 °F 88% 29.91 in 10.0 mi Calm Calm - 0.01 in Rain Light Rain
2:53 PM 52.0 °F 48.9 °F 89% 29.90 in 4.0 mi South 5.8 mph - 0.02 in Rain Light Rain
3:07 PM 51.8 °F 48.2 °F 88% 29.90 in 2.5 mi South 8.1 mph - 0.03 in Rain Rain
3:16 PM 51.8 °F 48.2 °F 88% 29.91 in 3.0 mi South 9.2 mph - 0.04 in Rain Light Rain
3:19 PM 51.8 °F 48.2 °F 88% 29.90 in 2.5 mi South 8.1 mph - 0.04 in Rain Light Rain
3:53 PM 48.9 °F 46.9 °F 93% 29.91 in 4.0 mi NNW 9.2 mph - 0.18 in Rain Light Rain
4:16 PM 48.2 °F 44.6 °F 87% 29.93 in 4.0 mi NNW 6.9 mph - 0.04 in Rain Rain
4:53 PM 48.9 °F 45.0 °F 86% 29.91 in 10.0 mi North 4.6 mph - 0.08 in Rain Light Rain
5:53 PM 48.9 °F 45.0 °F 86% 29.91 in 10.0 mi Calm Calm - 0.00 in   Overcast
6:53 PM 48.9 °F 46.0 °F 90% 29.93 in 10.0 mi South 4.6 mph - 0.00 in   Overcast
7:53 PM 48.9 °F 46.0 °F 90% 29.93 in 10.0 mi South 3.5 mph - 0.00 in   Overcast
10:53 PM 46.4 °F 42.8 °F 87% 30.00 in 10.0 mi Calm Calm - N/A   Clear
11:12 PM 46.4 °F 42.8 °F 87% 30.00 in 10.0 mi Calm Calm - N/A   Partly Cloudy
11:53 PM 44.6 °F 42.8 °F 93% 30.01 in 10.0 mi Calm Calm - N/A   Clear